Date String (YYYY-MM-DD hh:mm:ss) UTC,Instrument flags,absolute air pressure of the measurement (hPa),sample flow rate (lpm),inlet stack bypass flow (lpm),air temperature of the measurement (°C),ambient temperature measured by the external sensor (°C),aerosol sample conditioner tube jacket temperature (°C),OPC LED temperature (°C),internal box temperature (°C),relative humidity of the measurement (%),span deviation,mass concentration of particles derived from Lorenz-Mie calculation of OPC scattering (μg/m³),mass concentration of particles derived from Lorenz-Mie calculation of OPC scattering (μg/m³),mass concentration of particles derived from Lorenz-Mie calculation of OPC scattering (μg/m³)
DateTimeUTC,F1_M11,P_M11,Q1_M11,Q2_M11,T1_M11,T2_M11,T3_M11,T4_M11,T5_M11,U1_M11,ZSPAN_M11,X0_M11,X2_M11,X1_M11
2023-07-04 02:00:00,SystemResetWarning,0830.9,4.99,000.00,028.8,027.4,000.0,037.2,030.6,21.1,0000.0,0007.24,0003.74,0003.43
2023-07-04 02:01:00,SystemResetWarning,0831.0,5.00,000.00,028.9,027.6,000.0,037.2,030.6,21.0,0000.0,0007.36,0003.71,0003.41
2023-07-04 02:02:00,SystemResetWarning,0830.8,5.01,000.00,028.9,027.8,000.0,037.3,030.7,22.1,0000.0,0007.29,0003.64,0003.35
2023-07-04 02:03:00,SystemResetWarning,0831.1,4.99,000.00,029.0,027.0,000.0,037.2,030.7,22.0,0000.0,0006.89,0003.58,0003.30
2023-07-04 02:04:00,SystemResetWarning,0831.3,5.00,000.00,028.9,025.5,000.0,037.1,030.4,20.8,0000.0,0006.39,0003.54,0003.26
2023-07-04 02:05:00,SystemResetWarning,0831.2,5.02,000.00,028.9,025.4,000.0,037.1,030.3,21.1,0000.0,0006.03,0003.52,0003.23
2023-07-04 02:06:00,SystemResetWarning,0831.2,4.99,000.00,028.8,025.7,000.0,037.1,030.2,21.4,0000.0,0007.55,0003.51,0003.20
2023-07-04 02:07:00,SystemResetWarning,0831.2,4.99,000.00,028.8,026.1,000.0,037.2,030.3,21.3,0000.0,0007.67,0003.52,0003.20
2023-07-04 02:08:00,SystemResetWarning,0831.3,5.00,000.00,028.8,026.5,000.0,037.2,030.3,21.4,0000.0,0007.64,0003.49,0003.18
2023-07-04 02:09:00,SystemResetWarning,0831.3,5.00,000.00,028.8,026.8,000.0,037.2,030.4,21.6,0000.0,0007.50,0003.45,0003.15
2023-07-04 02:10:00,SystemResetWarning,0831.3,4.99,000.00,028.8,027.1,000.0,037.3,030.5,21.2,0000.0,0007.37,0003.42,0003.12
2023-07-04 02:11:00,SystemResetWarning,0831.3,4.99,000.00,028.9,027.4,000.0,037.3,030.6,21.5,0000.0,0007.33,0003.39,0003.07
2023-07-04 02:12:00,SystemResetWarning,0831.3,5.00,000.00,028.9,027.6,000.0,037.3,030.6,22.1,0000.0,0007.08,0003.35,0002.98
2023-07-04 02:13:00,SystemResetWarning,0831.3,5.00,000.00,029.0,027.7,000.0,037.3,030.7,22.4,0000.0,0007.03,0003.33,0002.94
2023-07-04 02:14:00,SystemResetWarning,0831.3,4.99,000.00,029.0,026.3,000.0,037.2,030.6,22.3,0000.0,0006.83,0003.29,0002.89
2023-07-04 02:15:00,SystemResetWarning,0831.2,5.01,000.00,028.9,024.5,000.0,037.1,030.3,22.6,0000.0,0007.59,0003.27,0002.85
2023-07-04 02:16:00,SystemResetWarning,0831.2,5.01,000.00,028.8,024.3,000.0,037.0,030.1,22.7,0000.0,0007.87,0003.24,0002.84
2023-07-04 02:17:00,SystemResetWarning,0831.2,5.00,000.00,028.7,024.7,000.0,037.1,030.0,22.7,0000.0,0006.46,0003.20,0002.81
2023-07-04 02:18:00,SystemResetWarning,0831.2,4.99,000.00,028.7,025.2,000.0,037.1,030.0,23.1,0000.0,0006.30,0003.20,0002.79
2023-07-04 02:19:00,SystemResetWarning,0831.2,5.00,000.00,028.7,025.7,000.0,037.1,030.1,23.6,0000.0,0006.35,0003.21,0002.81
2023-07-04 02:20:00,SystemResetWarning,0831.3,5.00,000.00,028.7,026.1,000.0,037.1,030.2,24.0,0000.0,0006.45,0003.23,0002.85
2023-07-04 02:21:00,SystemResetWarning,0831.3,4.99,000.00,028.7,026.6,000.0,037.2,030.3,24.3,0000.0,0006.48,0003.24,0002.88
2023-07-04 02:22:00,SystemResetWarning,0831.3,4.99,000.00,028.7,026.9,000.0,037.2,030.4,24.7,0000.0,0006.36,0003.23,0002.91
2023-07-04 02:23:00,SystemResetWarning,0831.3,5.01,000.00,028.8,027.2,000.0,037.2,030.5,25.0,0000.0,0006.37,0003.24,0002.94
2023-07-04 02:24:00,SystemResetWarning,0831.4,5.01,000.00,028.8,027.4,000.0,037.2,030.5,23.1,0000.0,0006.36,0003.24,0002.97
2023-07-04 02:25:00,SystemResetWarning,0831.4,5.01,000.00,028.9,027.6,000.0,037.2,030.6,23.0,0000.0,0006.34,0003.24,0002.98
2023-07-04 02:26:00,SystemResetWarning,0831.4,5.00,000.00,028.9,027.8,000.0,037.3,030.7,23.0,0000.0,0005.73,0003.23,0002.98
2023-07-04 02:27:00,SystemResetWarning,0831.5,4.99,000.00,029.0,027.7,000.0,037.3,030.7,22.3,0000.0,0004.42,0003.22,0002.96
2023-07-04 02:28:00,SystemResetWarning,0831.5,4.98,000.00,028.9,026.1,000.0,037.2,030.5,21.7,0000.0,0004.45,0003.22,0002.92
2023-07-04 02:29:00,SystemResetWarning,0831.5,5.02,000.00,028.9,025.3,000.0,037.1,030.3,21.8,0000.0,0004.35,0003.19,0002.89
2023-07-04 02:30:00,SystemResetWarning,0831.5,5.00,000.00,028.8,025.4,000.0,037.1,030.1,20.0,0000.0,0004.24,0003.15,0002.83
2023-07-04 02:31:00,SystemResetWarning,0831.5,5.00,000.00,028.7,025.7,000.0,037.1,030.1,20.0,0000.0,0004.04,0003.12,0002.77
2023-07-04 02:32:00,SystemResetWarning,0831.5,5.01,000.00,028.7,026.1,000.0,037.2,030.2,20.0,0000.0,0003.93,0003.06,0002.71
2023-07-04 02:33:00,SystemResetWarning,0831.5,4.99,000.00,028.8,026.5,000.0,037.2,030.3,20.4,0000.0,0003.85,0002.98,0002.64
2023-07-04 02:34:00,SystemResetWarning,0831.5,5.00,000.00,028.8,026.9,000.0,037.2,030.4,22.3,0000.0,0003.82,0002.90,0002.57
2023-07-04 02:35:00,SystemResetWarning,0831.5,4.99,000.00,028.8,027.2,000.0,037.3,030.5,22.2,0000.0,0003.62,0002.82,0002.49
2023-07-04 02:36:00,SystemResetWarning,0831.4,5.00,000.00,028.9,027.4,000.0,037.3,030.6,20.2,0000.0,0003.54,0002.75,0002.43
2023-07-04 02:37:00,SystemResetWarning,0831.5,5.01,000.00,028.9,027.6,000.0,037.3,030.6,18.6,0000.0,0003.60,0002.72,0002.38
2023-07-04 02:38:00,SystemResetWarning,0831.5,5.00,000.00,029.0,027.7,000.0,037.3,030.7,18.1,0000.0,0003.47,0002.66,0002.35
2023-07-04 02:39:00,SystemResetWarning,0831.5,4.98,000.00,029.0,026.5,000.0,037.2,030.6,18.5,0000.0,0003.34,0002.60,0002.32
2023-07-04 02:40:00,SystemResetWarning,0831.5,5.01,000.00,028.9,025.3,000.0,037.1,030.4,18.1,0000.0,0003.30,0002.58,0002.31
2023-07-04 02:41:00,SystemResetWarning,0831.5,5.02,000.00,028.8,025.4,000.0,037.1,030.2,18.0,0000.0,0004.14,0002.60,0002.29
2023-07-04 02:42:00,SystemResetWarning,0831.5,5.00,000.00,028.8,025.7,000.0,037.2,030.2,17.7,0000.0,0004.12,0002.57,0002.28
2023-07-04 02:43:00,SystemResetWarning,0831.5,5.00,000.00,028.8,026.1,000.0,037.2,030.2,18.0,0000.0,0004.20,0002.58,0002.26
2023-07-04 02:44:00,SystemResetWarning,0831.5,4.98,000.00,028.8,026.5,000.0,037.2,030.3,18.8,0000.0,0004.22,0002.60,0002.26
2023-07-04 02:45:00,SystemResetWarning,0831.5,4.99,000.00,028.8,026.8,000.0,037.3,030.4,17.8,0000.0,0004.14,0002.61,0002.28
2023-07-04 02:46:00,SystemResetWarning,0831.5,5.01,000.00,028.8,027.1,000.0,037.3,030.5,17.6,0000.0,0004.09,0002.60,0002.29
2023-07-04 02:47:00,SystemResetWarning,0831.6,5.01,000.00,028.9,027.3,000.0,037.3,030.6,17.8,0000.0,0004.47,0002.59,0002.30
2023-07-04 02:48:00,SystemResetWarning,0831.5,5.00,000.00,028.9,027.6,000.0,037.3,030.7,17.3,0000.0,0005.88,0002.61,0002.32
2023-07-04 02:49:00,SystemResetWarning,0831.5,5.00,000.00,029.0,027.7,000.0,037.4,030.7,17.1,0000.0,0006.43,0002.67,0002.36
2023-07-04 02:50:00,SystemResetWarning,0831.5,5.00,000.00,029.0,027.9,000.0,037.4,030.8,17.6,0000.0,0006.62,0002.74,0002.40
2023-07-04 02:51:00,SystemResetWarning,0831.5,4.99,000.00,029.0,027.0,000.0,037.3,030.7,17.6,0000.0,0006.79,0002.81,0002.43
2023-07-04 02:52:00,SystemResetWarning,0831.4,4.99,000.00,029.0,025.5,000.0,037.2,030.5,17.7,0000.0,0006.13,0002.84,0002.48
2023-07-04 02:53:00,SystemResetWarning,0831.4,5.01,000.00,028.9,025.4,000.0,037.2,030.3,17.3,0000.0,0006.39,0002.94,0002.53
2023-07-04 02:54:00,SystemResetWarning,0831.5,5.01,000.00,028.8,025.7,000.0,037.2,030.2,17.6,0000.0,0006.48,0002.98,0002.59
2023-07-04 02:55:00,SystemResetWarning,0831.5,4.99,000.00,028.8,026.0,000.0,037.2,030.3,17.6,0000.0,0006.65,0003.04,0002.64
2023-07-04 02:56:00,SystemResetWarning,0831.5,5.00,000.00,028.8,026.4,000.0,037.3,030.4,17.4,0000.0,0007.08,0003.11,0002.72
2023-07-04 02:57:00,SystemResetWarning,0831.4,5.01,000.00,028.9,026.8,000.0,037.3,030.5,17.6,0000.0,0008.00,0003.15,0002.77
2023-07-04 02:58:00,SystemResetWarning,0831.5,5.00,000.00,028.9,027.1,000.0,037.3,030.5,17.8,0000.0,0007.97,0003.20,0002.82
2023-07-04 02:59:00,SystemResetWarning,0831.4,4.99,000.00,028.9,027.3,000.0,037.4,030.6,17.4,0000.0,0007.18,0003.23,0002.84
